Weather Roundup
Issued by NWS

Home | Current Version | Previous Version | Text Only | Print | Product List | Glossary On
Versions: 1 2 3 4 5 6 7 8 9 10 11 12 13 14 15 16 17 18 19 20 21 22 23 24 25 26 27 28 29 30 31 32 33 34 35 36 37 38 39 40 41 42 43 44 45 46 47 48 49 50
000
NZUS93 KARX 282259
HRRWXR

CURRENT HOURLY OBSERVATIONS ACROSS
MUCH OF THE UPPER MISSISSIPPI VALLEY
NATIONAL WEATHER SERVICE LA CROSSE WI
500 PM CST SUN DEC 28 2014


...SOUTHEAST MINNESOTA...


CITY           SKY/WX    TMP DP  RH WIND       PRES   REMARKS
ROCHESTER      CLEAR     17  12  80 N3        30.19R
ROCHESTER/MAYO FAIR      20  14  76 CALM      30.20R
WINONA         PTCLDY    19  16  86 NW5       30.24R WCI  13
AUSTIN         PTCLDY    18  12  79 CALM      30.19R
ALBERT LEA     CLEAR     16  12  86 N3        30.19R
DODGE CENTER   PTCLDY    16  12  86 N5        30.19R WCI   9
PRESTON        CLOUDY    17  12  82 N3        30.19R
OWATONNA       CLEAR     18  12  79 CALM      30.20R
FARIBAULT      PTCLDY    18  14  86 CALM      30.22R
$$

...ELSEWHERE IN MINNESOTA...


CITY           SKY/WX    TMP DP  RH WIND       PRES   REMARKS
MINNEAPOLIS    MOCLDY    22  11  62 N7        30.24R WCI  13
INTNL FALLS    PTCLDY    -2 -10  69 W7        30.27R WCI -15
DULUTH         CLEAR      7  -5  57 NW5       30.20R WCI  -2
RED WING       PTCLDY    19  12  73 CALM      30.23R
REDWOOD FALLS  CLOUDY    23  17  78 NE5       30.22R WCI  17
MANKATO        CLEAR     16  12  86 NW3       30.22R
WORTHINGTON    CLOUDY    19 -26  12 NE15      30.17R WCI   5
FAIRMONT       CLOUDY    18  12  79 N7        30.19R WCI   8
$$

...SOUTHWEST WISCONSIN...


CITY           SKY/WX    TMP DP  RH WIND       PRES   REMARKS
LA CROSSE      CLOUDY    25  18  74 N7        30.21S WCI  17
PRAIRIE DU CHI CLEAR     30  20  67 W3        30.18S
BOSCOBEL       CLEAR     29  18  63 CALM      30.19R
LONE ROCK      NOT AVBL
PLATTEVILLE    CLEAR     28  16  60 CALM      30.17R
FORT MC COY    CLOUDY    26  19  75 NW5       30.20R WCI  20
VIROQUA        FAIR      25  20  82 NW5       30.15R WCI  19
WIS DELLS      NOT AVBL
$$

...ELSEWHERE IN WISCONSIN...


CITY           SKY/WX    TMP DP  RH WIND       PRES   REMARKS
MILWAUKEE      PTCLDY    31  16  54 NW5       30.17R WCI  26
MADISON        PTCLDY    28  18  66 N3        30.16R
GREEN BAY      CLOUDY    26  18  71 NW9       30.18R WCI  17
EAU CLAIRE     PTCLDY    13  10  88 CALM      30.21R
BLACK RVR FLS  CLOUDY    22  16  78 CALM      30.20R
MEDFORD        CLEAR     13  10  87 NW5       30.14S WCI   6
WAUSAU         CLOUDY    17  13  84 W6        30.15R WCI   9
WIS RAPIDS     CLOUDY    22  15  75 NW9       30.19R WCI  12
MARSHFIELD     CLOUDY    19  13  77 NW5       30.17R WCI  12
RICE LAKE      CLEAR     16   7  67 N5        30.22R WCI   9
$$

...NORTHEAST IOWA...


CITY           SKY/WX    TMP DP  RH WIND       PRES   REMARKS
DECORAH        CLEAR     25  19  80 NW6       30.16R WCI  18
MASON CITY     CLEAR     13   9  84 NE8       30.19R WCI   2
CHARLES CITY   CLEAR     21  18  86 N9        30.19R WCI  11
OELWEIN        CLEAR     28  21  74 NW5       30.17R WCI  23
$$

...ELSEWHERE IN IOWA...


CITY           SKY/WX    TMP DP  RH WIND       PRES   REMARKS
DES MOINES     MOCLDY    34  21  59 CALM      30.14S
IOWA CITY      CLEAR     31  18  58 CALM      30.19R
FORT DODGE     PTCLDY    19  12  73 N7        30.17R WCI  10
$$

...NORTHERN ILLINOIS...


CITY           SKY/WX    TMP DP  RH WIND       PRES   REMARKS
CHICAGO-OHARE  CLEAR     30  16  56 NW6       30.17R WCI  24
CHICAGO-MIDWAY CLEAR     32  17  54 SW7       30.18S WCI  26
MOLINE         CLEAR     30  21  69 CALM      30.18R
ROCKFORD       CLEAR     30  17  58 NW3       30.19S
PEORIA         CLEAR     33  17  51 S5        30.19F WCI  29
$$

NOTE: "FAIR" INDICATES FEW OR NO CLOUDS BELOW 12,000 FEET WITH NO
SIGNIFICANT WEATHER AND/OR OBSTRUCTIONS TO VISIBILITY. WIND
SPEEDS ARE IN MILES-PER-HOUR.



USA.gov is the U.S. government's official web portal to all federal, state and local government web resources and services.